Location: Bower School (historical)
(37.8389°N, 89.5348°W)
Time: 04:20:12
(UTC+00:00)

Meteor 1-25 Rocket - Pass Details

Date: 11 December 2025
Orbit: 837 x 888 km, 81.2° (Epoch: 21 January)

Event Time Altitude Azimuth Distance (km) Brightness Sun altitude
Rises 23:23:08 0° 353° (N) 3,497 7.2 -8.6°
Reaches altitude 10° 23:25:37 10° 357° (N) 2,549 6.5 -9.1°
Maximum altitude 23:31:24 67° 80° (E) 944 4.2 -10.1°
Drops below altitude 10° 23:37:04 10° 163° (SSE) 2,503 6.7 -11.2°
Sets 23:39:29 0° 165° (SSE) 3,428 7.4 -11.6°
